Time,TemperatureF,DewpointF,PressureIn,WindDirection,WindDirectionDegrees,WindSpeedMPH,WindSpeedGustMPH,Humidity,HourlyPrecipIn,Conditions,Clouds,dailyrainin,SoftwareType,DateUTC
2013-09-02 00:01:00,73.6,69.5,29.70,North,-999,-999.0,0.0,87,0.00,,---,0.00,VWS V14.01,2013-09-02 04:01:00,
2013-09-02 00:02:00,73.8,69.7,29.70,North,-999,-999.0,0.0,87,0.00,,---,0.00,VWS V14.01,2013-09-02 04:02:00,
2013-09-02 00:04:00,73.6,69.5,29.70,North,-999,-999.0,0.0,87,0.00,,---,0.00,VWS V14.01,2013-09-02 04:04:00,
2013-09-02 00:10:00,73.4,69.3,29.70,North,-999,-999.0,0.0,87,0.00,,---,0.00,VWS V14.01,2013-09-02 04:10:00,
2013-09-02 00:11:00,73.4,69.3,29.70,North,-999,-999.0,0.0,87,0.00,,---,0.00,VWS V14.01,2013-09-02 04:11:00,
2013-09-02 00:16:00,73.4,69.3,29.70,North,-999,-999.0,0.0,87,0.00,,---,0.00,VWS V14.01,2013-09-02 04:16:00,
2013-09-02 00:21:00,73.3,69.5,29.70,North,-999,-999.0,0.0,88,0.00,,---,0.00,VWS V14.01,2013-09-02 04:21:00,
2013-09-02 00:26:00,73.3,69.5,29.70,North,-999,-999.0,0.0,88,0.00,,---,0.00,VWS V14.01,2013-09-02 04:26:00,
2013-09-02 00:31:00,73.1,69.3,29.70,North,-999,-999.0,0.0,88,0.00,,---,0.00,VWS V14.01,2013-09-02 04:31:00,
2013-09-02 00:36:00,73.1,69.3,29.70,North,-999,-999.0,0.0,88,0.00,,---,0.00,VWS V14.01,2013-09-02 04:36:00,
2013-09-02 00:41:00,73.1,69.3,29.70,North,-999,-999.0,0.0,88,0.00,,---,0.00,VWS V14.01,2013-09-02 04:41:00,
2013-09-02 00:46:00,73.1,69.3,29.70,North,-999,-999.0,0.0,88,0.00,,---,0.00,VWS V14.01,2013-09-02 04:46:00,
2013-09-02 00:51:00,73.1,69.7,29.70,North,-999,-999.0,0.0,89,0.00,,---,0.00,VWS V14.01,2013-09-02 04:51:00,
2013-09-02 00:56:00,73.1,69.7,29.70,North,-999,-999.0,0.0,89,0.00,,---,0.00,VWS V14.01,2013-09-02 04:56:00,
2013-09-02 01:02:00,73.1,69.3,29.70,North,-999,-999.0,0.0,88,0.00,,---,0.00,VWS V14.01,2013-09-02 05:02:00,
2013-09-02 01:07:00,73.1,69.7,29.70,North,-999,-999.0,0.0,89,0.00,,---,0.00,VWS V14.01,2013-09-02 05:07:00,
2013-09-02 01:12:00,73.1,69.3,29.70,North,-999,-999.0,0.0,88,0.00,,---,0.00,VWS V14.01,2013-09-02 05:12:00,
2013-09-02 01:17:00,73.1,69.3,29.70,North,-999,-999.0,0.0,88,0.00,,---,0.00,VWS V14.01,2013-09-02 05:17:00,
2013-09-02 01:22:00,73.1,69.3,29.70,North,-999,-999.0,0.0,88,0.00,,---,0.00,VWS V14.01,2013-09-02 05:22:00,
2013-09-02 01:27:00,73.1,69.3,29.70,North,-999,-999.0,0.0,88,0.00,,---,0.00,VWS V14.01,2013-09-02 05:27:00,
2013-09-02 01:32:00,73.1,69.3,29.69,North,-999,-999.0,0.0,88,0.00,,---,0.00,VWS V14.01,2013-09-02 05:32:00,
2013-09-02 01:37:00,73.1,69.7,29.70,North,-999,-999.0,0.0,89,0.00,,---,0.00,VWS V14.01,2013-09-02 05:37:00,
2013-09-02 01:42:00,73.1,69.7,29.69,North,-999,-999.0,0.0,89,0.00,,---,0.00,VWS V14.01,2013-09-02 05:42:00,
2013-09-02 01:47:00,73.1,69.7,29.69,North,-999,-999.0,0.0,89,0.00,,---,0.00,VWS V14.01,2013-09-02 05:47:00,
2013-09-02 01:52:00,73.1,69.7,29.70,North,-999,-999.0,0.0,89,0.00,,---,0.00,VWS V14.01,2013-09-02 05:52:00,
2013-09-02 01:57:00,73.1,69.7,29.69,North,-999,-999.0,0.0,89,0.00,,---,0.00,VWS V14.01,2013-09-02 05:57:00,
2013-09-02 02:02:00,73.1,69.7,29.69,North,-999,-999.0,0.0,89,0.00,,---,0.00,VWS V14.01,2013-09-02 06:02:00,
2013-09-02 02:08:00,73.1,69.7,29.69,North,-999,-999.0,0.0,89,0.00,,---,0.00,VWS V14.01,2013-09-02 06:08:00,
2013-09-02 02:13:00,73.1,69.3,29.69,North,-999,-999.0,0.0,88,0.00,,---,0.00,VWS V14.01,2013-09-02 06:13:00,
2013-09-02 02:18:00,72.9,69.1,29.69,North,-999,-999.0,0.0,88,0.00,,---,0.00,VWS V14.01,2013-09-02 06:18:00,
2013-09-02 02:23:00,72.9,69.1,29.69,North,-999,-999.0,0.0,88,0.00,,---,0.00,VWS V14.01,2013-09-02 06:23:00,
2013-09-02 02:28:00,72.9,69.1,29.69,North,-999,-999.0,0.0,88,0.00,,---,0.00,VWS V14.01,2013-09-02 06:28:00,
2013-09-02 02:33:00,72.9,69.1,29.69,North,-999,-999.0,0.0,88,0.00,,---,0.00,VWS V14.01,2013-09-02 06:33:00,
2013-09-02 02:38:00,72.9,69.5,29.69,North,-999,-999.0,0.0,89,0.00,,---,0.00,VWS V14.01,2013-09-02 06:38:00,
2013-09-02 02:43:00,72.9,69.5,29.68,North,-999,-999.0,0.0,89,0.00,,---,0.00,VWS V14.01,2013-09-02 06:43:00,
2013-09-02 02:48:00,72.9,69.5,29.68,North,-999,-999.0,0.0,89,0.00,,---,0.00,VWS V14.01,2013-09-02 06:48:00,
2013-09-02 02:53:00,73.1,69.7,29.68,North,-999,-999.0,0.0,89,0.00,,---,0.00,VWS V14.01,2013-09-02 06:53:00,
2013-09-02 02:58:00,73.1,69.7,29.69,North,-999,-999.0,0.0,89,0.00,,---,0.00,VWS V14.01,2013-09-02 06:58:00,
2013-09-02 03:04:00,73.1,69.7,29.69,North,-999,-999.0,0.0,89,0.00,,---,0.00,VWS V14.01,2013-09-02 07:04:00,
2013-09-02 03:09:00,73.1,70.0,29.69,North,-999,-999.0,0.0,90,0.00,,---,0.00,VWS V14.01,2013-09-02 07:09:00,
2013-09-02 03:14:00,73.1,70.0,29.68,North,-999,-999.0,0.0,90,0.00,,---,0.00,VWS V14.01,2013-09-02 07:14:00,
2013-09-02 03:19:00,73.3,70.2,29.68,North,-999,-999.0,0.0,90,0.00,,---,0.00,VWS V14.01,2013-09-02 07:19:00,
2013-09-02 03:24:00,73.3,70.2,29.68,North,-999,-999.0,0.0,90,0.00,,---,0.00,VWS V14.01,2013-09-02 07:24:00,
2013-09-02 03:29:00,73.1,69.7,29.68,North,-999,-999.0,0.0,89,0.00,,---,0.00,VWS V14.01,2013-09-02 07:29:00,
2013-09-02 03:34:00,73.3,70.2,29.68,North,-999,-999.0,0.0,90,0.00,,---,0.00,VWS V14.01,2013-09-02 07:34:00,
2013-09-02 03:39:00,73.3,70.2,29.68,North,-999,-999.0,0.0,90,0.00,,---,0.00,VWS V14.01,2013-09-02 07:39:00,
2013-09-02 03:44:00,73.3,70.2,29.68,North,-999,-999.0,0.0,90,0.00,,---,0.00,VWS V14.01,2013-09-02 07:44:00,
2013-09-02 03:49:00,73.4,70.3,29.68,North,-999,-999.0,0.0,90,0.00,,---,0.00,VWS V14.01,2013-09-02 07:49:00,
2013-09-02 03:54:00,73.3,70.5,29.67,North,-999,-999.0,0.0,91,0.00,,---,0.00,VWS V14.01,2013-09-02 07:54:00,
2013-09-02 03:59:00,73.3,70.5,29.68,North,-999,-999.0,0.0,91,0.00,,---,0.00,VWS V14.01,2013-09-02 07:59:00,
2013-09-02 04:04:00,73.3,70.5,29.67,North,-999,-999.0,0.0,91,0.00,,---,0.00,VWS V14.01,2013-09-02 08:04:00,
2013-09-02 04:10:00,73.4,70.3,29.68,North,-999,-999.0,0.0,90,0.00,,---,0.00,VWS V14.01,2013-09-02 08:10:00,
2013-09-02 04:15:00,73.4,70.6,29.67,North,-999,-999.0,0.0,91,0.00,,---,0.00,VWS V14.01,2013-09-02 08:15:00,
2013-09-02 04:20:00,73.4,70.6,29.68,North,-999,-999.0,0.0,91,0.00,,---,0.00,VWS V14.01,2013-09-02 08:20:00,
2013-09-02 04:25:00,73.4,70.6,29.68,North,-999,-999.0,0.0,91,0.00,,---,0.00,VWS V14.01,2013-09-02 08:25:00,
2013-09-02 04:30:00,73.4,70.6,29.68,North,-999,-999.0,0.0,91,0.00,,---,0.00,VWS V14.01,2013-09-02 08:30:00,
2013-09-02 04:35:00,73.4,70.6,29.67,North,-999,-999.0,0.0,91,0.00,,---,0.00,VWS V14.01,2013-09-02 08:35:00,
2013-09-02 04:40:00,73.4,70.6,29.67,North,-999,-999.0,0.0,91,0.00,,---,0.00,VWS V14.01,2013-09-02 08:40:00,
2013-09-02 04:45:00,73.4,70.6,29.67,North,-999,-999.0,0.0,91,0.00,,---,0.00,VWS V14.01,2013-09-02 08:45:00,
2013-09-02 04:50:00,73.4,70.6,29.67,North,-999,-999.0,0.0,91,0.00,,---,0.00,VWS V14.01,2013-09-02 08:50:00,
2013-09-02 04:55:00,73.4,70.6,29.67,North,-999,-999.0,0.0,91,0.00,,---,0.00,VWS V14.01,2013-09-02 08:55:00,
2013-09-02 05:01:00,73.4,70.6,29.67,North,-999,-999.0,0.0,91,0.00,,---,0.00,VWS V14.01,2013-09-02 09:01:00,
2013-09-02 05:06:00,73.4,70.6,29.67,North,-999,-999.0,0.0,91,0.00,,---,0.00,VWS V14.01,2013-09-02 09:06:00,
2013-09-02 05:11:00,73.4,70.6,29.67,North,-999,-999.0,0.0,91,0.00,,---,0.00,VWS V14.01,2013-09-02 09:11:00,
2013-09-02 05:16:00,73.4,70.6,29.67,North,-999,-999.0,0.0,91,0.00,,---,0.00,VWS V14.01,2013-09-02 09:16:00,
2013-09-02 05:21:00,73.4,70.6,29.66,North,-999,-999.0,0.0,91,0.00,,---,0.00,VWS V14.01,2013-09-02 09:21:00,
2013-09-02 05:26:00,73.4,70.6,29.67,North,-999,-999.0,0.0,91,0.00,,---,0.00,VWS V14.01,2013-09-02 09:26:00,
2013-09-02 05:31:00,73.6,70.8,29.67,North,-999,-999.0,0.0,91,0.00,,---,0.00,VWS V14.01,2013-09-02 09:31:00,
2013-09-02 05:36:00,73.6,70.8,29.67,North,-999,-999.0,0.0,91,0.00,,---,0.00,VWS V14.01,2013-09-02 09:36:00,
2013-09-02 05:41:00,73.6,70.8,29.67,North,-999,-999.0,0.0,91,0.00,,---,0.00,VWS V14.01,2013-09-02 09:41:00,
2013-09-02 05:46:00,73.6,70.8,29.67,North,-999,-999.0,0.0,91,0.00,,---,0.00,VWS V14.01,2013-09-02 09:46:00,
2013-09-02 05:51:00,73.6,70.8,29.67,North,-999,-999.0,0.0,91,0.00,,---,0.00,VWS V14.01,2013-09-02 09:51:00,
2013-09-02 05:56:00,73.4,70.6,29.67,North,-999,-999.0,0.0,91,0.00,,---,0.00,VWS V14.01,2013-09-02 09:56:00,
2013-09-02 06:02:00,73.4,70.6,29.67,North,-999,-999.0,0.0,91,0.00,,---,0.00,VWS V14.01,2013-09-02 10:02:00,
2013-09-02 06:07:00,73.4,70.6,29.67,North,-999,-999.0,0.0,91,0.00,,---,0.00,VWS V14.01,2013-09-02 10:07:00,
2013-09-02 06:12:00,73.4,70.6,29.67,North,-999,-999.0,0.0,91,0.00,,---,0.00,VWS V14.01,2013-09-02 10:12:00,
2013-09-02 06:17:00,73.4,70.6,29.67,North,-999,-999.0,0.0,91,0.00,,---,0.00,VWS V14.01,2013-09-02 10:17:00,
2013-09-02 06:22:00,73.4,70.6,29.67,North,-999,-999.0,0.0,91,0.00,,---,0.00,VWS V14.01,2013-09-02 10:22:00,
2013-09-02 06:27:00,73.4,70.6,29.67,North,-999,-999.0,0.0,91,0.00,,---,0.00,VWS V14.01,2013-09-02 10:27:00,
2013-09-02 06:32:00,73.4,70.6,29.67,North,-999,-999.0,0.0,91,0.00,,---,0.00,VWS V14.01,2013-09-02 10:32:00,
2013-09-02 06:37:00,73.4,70.6,29.67,North,-999,-999.0,0.0,91,0.00,,---,0.00,VWS V14.01,2013-09-02 10:37:00,
2013-09-02 06:43:00,73.4,70.6,29.68,North,-999,-999.0,0.0,91,0.00,,---,0.00,VWS V14.01,2013-09-02 10:43:00,
2013-09-02 06:48:00,73.4,70.6,29.69,North,-999,-999.0,0.0,91,0.00,,---,0.00,VWS V14.01,2013-09-02 10:48:00,
2013-09-02 06:53:00,73.6,70.8,29.69,North,-999,-999.0,0.0,91,0.00,,---,0.00,VWS V14.01,2013-09-02 10:53:00,
2013-09-02 06:58:00,73.4,70.6,29.69,North,-999,-999.0,0.0,91,0.00,,---,0.00,VWS V14.01,2013-09-02 10:58:00,
2013-09-02 07:04:00,73.4,70.6,29.69,North,-999,-999.0,0.0,91,0.00,,---,0.00,VWS V14.01,2013-09-02 11:04:00,
2013-09-02 07:09:00,73.4,70.6,29.69,North,-999,-999.0,0.0,91,0.00,,---,0.00,VWS V14.01,2013-09-02 11:09:00,
2013-09-02 07:14:00,73.6,70.8,29.70,North,-999,-999.0,0.0,91,0.00,,---,0.00,VWS V14.01,2013-09-02 11:14:00,
2013-09-02 07:19:00,73.6,70.8,29.70,North,-999,-999.0,0.0,91,0.00,,---,0.00,VWS V14.01,2013-09-02 11:19:00,
2013-09-02 07:24:00,73.6,70.8,29.70,North,-999,-999.0,0.0,91,0.00,,---,0.00,VWS V14.01,2013-09-02 11:24:00,
2013-09-02 07:29:00,73.8,71.0,29.70,North,-999,-999.0,0.0,91,0.00,,---,0.00,VWS V14.01,2013-09-02 11:29:00,
2013-09-02 07:34:00,73.8,71.0,29.70,North,-999,-999.0,0.0,91,0.00,,---,0.00,VWS V14.01,2013-09-02 11:34:00,
2013-09-02 07:39:00,73.8,71.0,29.70,North,-999,-999.0,0.0,91,0.00,,---,0.00,VWS V14.01,2013-09-02 11:39:00,
2013-09-02 07:44:00,74.0,71.2,29.70,North,-999,-999.0,0.0,91,0.00,,---,0.00,VWS V14.01,2013-09-02 11:44:00,
2013-09-02 07:49:00,74.0,71.2,29.71,North,-999,-999.0,0.0,91,0.00,,---,0.00,VWS V14.01,2013-09-02 11:49:00,
2013-09-02 07:54:00,74.2,71.4,29.71,North,-999,-999.0,0.0,91,0.00,,---,0.00,VWS V14.01,2013-09-02 11:54:00,
2013-09-02 07:59:00,74.5,71.4,29.71,North,-999,-999.0,0.0,90,0.00,,---,0.00,VWS V14.01,2013-09-02 11:59:00,
2013-09-02 08:05:00,74.5,71.4,29.71,North,-999,-999.0,0.0,90,0.00,,---,0.00,VWS V14.01,2013-09-02 12:05:00,
2013-09-02 08:10:00,74.7,71.6,29.71,North,-999,-999.0,0.0,90,0.00,,---,0.00,VWS V14.01,2013-09-02 12:10:00,
2013-09-02 08:15:00,74.7,71.2,29.72,North,-999,-999.0,0.0,89,0.00,,---,0.00,VWS V14.01,2013-09-02 12:15:00,
2013-09-02 08:20:00,74.9,71.4,29.72,North,-999,-999.0,0.0,89,0.00,,---,0.00,VWS V14.01,2013-09-02 12:20:00,
2013-09-02 08:25:00,75.1,71.6,29.72,North,-999,-999.0,0.0,89,0.00,,---,0.00,VWS V14.01,2013-09-02 12:25:00,
2013-09-02 08:30:00,75.4,71.9,29.72,North,-999,-999.0,0.0,89,0.00,,---,0.00,VWS V14.01,2013-09-02 12:30:00,
2013-09-02 08:35:00,75.8,72.3,29.72,North,-999,-999.0,0.0,89,0.00,,---,0.00,VWS V14.01,2013-09-02 12:35:00,
2013-09-02 08:40:00,75.8,72.0,29.72,North,-999,-999.0,0.0,88,0.00,,---,0.00,VWS V14.01,2013-09-02 12:40:00,
2013-09-02 08:45:00,75.8,72.0,29.72,North,-999,-999.0,0.0,88,0.00,,---,0.00,VWS V14.01,2013-09-02 12:45:00,
2013-09-02 08:50:00,75.8,71.7,29.72,North,-999,-999.0,0.0,87,0.00,,---,0.00,VWS V14.01,2013-09-02 12:50:00,
2013-09-02 08:55:00,76.0,71.9,29.72,North,-999,-999.0,0.0,87,0.00,,---,0.00,VWS V14.01,2013-09-02 12:55:00,
2013-09-02 09:00:00,76.3,72.2,29.72,North,-999,-999.0,0.0,87,0.00,,---,0.00,VWS V14.01,2013-09-02 13:00:00,
2013-09-02 09:05:00,76.7,72.5,29.72,North,-999,-999.0,0.0,87,0.00,,---,0.00,VWS V14.01,2013-09-02 13:05:00,
2013-09-02 09:11:00,76.9,72.1,29.72,North,-999,-999.0,0.0,85,0.00,,---,0.00,VWS V14.01,2013-09-02 13:11:00,
2013-09-02 09:16:00,76.9,72.1,29.72,North,-999,-999.0,0.0,85,0.00,,---,0.00,VWS V14.01,2013-09-02 13:16:00,
2013-09-02 09:21:00,77.0,72.2,29.73,North,-999,-999.0,0.0,85,0.00,,---,0.00,VWS V14.01,2013-09-02 13:21:00,
2013-09-02 09:26:00,77.2,72.3,29.73,North,-999,-999.0,0.0,85,0.00,,---,0.00,VWS V14.01,2013-09-02 13:26:00,
2013-09-02 09:31:00,77.6,72.7,29.73,North,-999,-999.0,0.0,85,0.00,,---,0.00,VWS V14.01,2013-09-02 13:31:00,
2013-09-02 09:36:00,77.6,72.4,29.73,North,-999,-999.0,0.0,84,0.00,,---,0.00,VWS V14.01,2013-09-02 13:36:00,
2013-09-02 09:41:00,77.9,72.7,29.73,North,-999,-999.0,0.0,84,0.00,,---,0.00,VWS V14.01,2013-09-02 13:41:00,
2013-09-02 09:46:00,77.9,72.3,29.73,North,-999,-999.0,0.0,83,0.00,,---,0.00,VWS V14.01,2013-09-02 13:46:00,
2013-09-02 09:51:00,78.7,73.1,29.73,North,-999,-999.0,0.0,83,0.00,,---,0.00,VWS V14.01,2013-09-02 13:51:00,
2013-09-02 09:56:00,78.8,72.5,29.73,North,-999,-999.0,0.0,81,0.00,,---,0.00,VWS V14.01,2013-09-02 13:56:00,
2013-09-02 10:01:00,78.8,72.5,29.73,North,-999,-999.0,0.0,81,0.00,,---,0.00,VWS V14.01,2013-09-02 14:01:00,
2013-09-02 10:07:00,79.6,73.3,29.73,North,-999,-999.0,0.0,81,0.00,,---,0.00,VWS V14.01,2013-09-02 14:07:00,
2013-09-02 10:12:00,80.3,73.9,29.73,North,-999,-999.0,0.0,81,0.00,,---,0.00,VWS V14.01,2013-09-02 14:12:00,
2013-09-02 10:17:00,81.0,74.2,29.74,North,-999,-999.0,0.0,80,0.00,,---,0.00,VWS V14.01,2013-09-02 14:17:00,
2013-09-02 10:22:00,81.7,74.6,29.73,North,-999,-999.0,0.0,79,0.00,,---,0.00,VWS V14.01,2013-09-02 14:22:00,
2013-09-02 10:27:00,82.6,75.1,29.74,North,-999,-999.0,0.0,78,0.00,,---,0.00,VWS V14.01,2013-09-02 14:27:00,
2013-09-02 10:32:00,83.2,74.1,29.73,North,-999,-999.0,0.0,74,0.00,,---,0.00,VWS V14.01,2013-09-02 14:32:00,
2013-09-02 10:37:00,83.2,74.5,29.73,North,-999,-999.0,0.0,75,0.00,,---,0.00,VWS V14.01,2013-09-02 14:37:00,
2013-09-02 10:42:00,83.5,74.8,29.73,North,-999,-999.0,0.0,75,0.00,,---,0.00,VWS V14.01,2013-09-02 14:42:00,
2013-09-02 10:47:00,83.5,73.9,29.74,North,-999,-999.0,0.0,73,0.00,,---,0.00,VWS V14.01,2013-09-02 14:47:00,
2013-09-02 10:52:00,83.3,73.8,29.74,North,-999,-999.0,0.0,73,0.00,,---,0.00,VWS V14.01,2013-09-02 14:52:00,
2013-09-02 10:57:00,85.0,75.0,29.74,North,-999,-999.0,0.0,72,0.00,,---,0.00,VWS V14.01,2013-09-02 14:57:00,
2013-09-02 11:03:00,87.1,76.1,29.74,North,-999,-999.0,0.0,70,0.00,,---,0.00,VWS V14.01,2013-09-02 15:03:00,
2013-09-02 11:08:00,89.1,77.2,29.74,North,-999,-999.0,0.0,68,0.00,,---,0.00,VWS V14.01,2013-09-02 15:08:00,
2013-09-02 11:13:00,90.2,75.4,29.74,North,-999,-999.0,0.0,62,0.00,,---,0.00,VWS V14.01,2013-09-02 15:13:00,
2013-09-02 11:18:00,88.4,73.7,29.74,North,-999,-999.0,0.0,62,0.00,,---,0.00,VWS V14.01,2013-09-02 15:18:00,
2013-09-02 11:23:00,89.1,74.9,29.74,North,-999,-999.0,0.0,63,0.00,,---,0.00,VWS V14.01,2013-09-02 15:23:00,
2013-09-02 11:28:00,88.7,73.0,29.74,North,-999,-999.0,0.0,60,0.00,,---,0.00,VWS V14.01,2013-09-02 15:28:00,
2013-09-02 11:33:00,88.4,73.2,29.74,North,-999,-999.0,0.0,61,0.00,,---,0.00,VWS V14.01,2013-09-02 15:33:00,
2013-09-02 11:38:00,89.6,74.9,29.74,North,-999,-999.0,0.0,62,0.00,,---,0.00,VWS V14.01,2013-09-02 15:38:00,
2013-09-02 11:43:00,91.8,74.9,29.74,North,-999,-999.0,0.0,58,0.00,,---,0.00,VWS V14.01,2013-09-02 15:43:00,
2013-09-02 11:48:00,93.6,75.0,29.74,North,-999,-999.0,0.0,55,0.00,,---,0.00,VWS V14.01,2013-09-02 15:48:00,
2013-09-02 11:53:00,92.0,73.5,29.73,North,-999,-999.0,0.0,55,0.00,,---,0.00,VWS V14.01,2013-09-02 15:53:00,
2013-09-02 11:58:00,92.2,74.2,29.73,North,-999,-999.0,0.0,56,0.00,,---,0.00,VWS V14.01,2013-09-02 15:58:00,
2013-09-02 12:04:00,92.9,74.4,29.73,North,-999,-999.0,0.0,55,0.00,,---,0.00,VWS V14.01,2013-09-02 16:04:00,
2013-09-02 12:09:00,92.7,73.1,29.73,North,-999,-999.0,0.0,53,0.00,,---,0.00,VWS V14.01,2013-09-02 16:09:00,
2013-09-02 12:14:00,90.9,72.5,29.73,North,-999,-999.0,0.0,55,0.00,,---,0.00,VWS V14.01,2013-09-02 16:14:00,
2013-09-02 12:19:00,91.8,73.9,29.73,North,-999,-999.0,0.0,56,0.00,,---,0.00,VWS V14.01,2013-09-02 16:19:00,
2013-09-02 12:24:00,93.2,74.1,29.73,North,-999,-999.0,0.0,54,0.00,,---,0.00,VWS V14.01,2013-09-02 16:24:00,
2013-09-02 12:29:00,94.3,74.6,29.73,North,-999,-999.0,0.0,53,0.00,,---,0.00,VWS V14.01,2013-09-02 16:29:00,
2013-09-02 12:34:00,94.1,73.8,29.72,North,-999,-999.0,0.0,52,0.00,,---,0.00,VWS V14.01,2013-09-02 16:34:00,
2013-09-02 12:39:00,92.2,73.2,29.72,North,-999,-999.0,0.0,54,0.00,,---,0.00,VWS V14.01,2013-09-02 16:39:00,
2013-09-02 12:44:00,91.1,73.2,29.72,North,-999,-999.0,0.0,56,0.00,,---,0.00,VWS V14.01,2013-09-02 16:44:00,
2013-09-02 12:49:00,91.6,73.7,29.72,North,-999,-999.0,0.0,56,0.00,,---,0.00,VWS V14.01,2013-09-02 16:49:00,
2013-09-02 12:54:00,91.8,73.3,29.72,North,-999,-999.0,0.0,55,0.00,,---,0.00,VWS V14.01,2013-09-02 16:54:00,
2013-09-02 12:59:00,91.4,72.4,29.72,North,-999,-999.0,0.0,54,0.00,,---,0.00,VWS V14.01,2013-09-02 16:59:00,
2013-09-02 13:04:00,90.5,72.1,29.72,North,-999,-999.0,0.0,55,0.00,,---,0.00,VWS V14.01,2013-09-02 17:04:00,
2013-09-02 13:10:00,91.1,73.8,29.72,North,-999,-999.0,0.0,57,0.00,,---,0.00,VWS V14.01,2013-09-02 17:10:00,
2013-09-02 13:15:00,91.1,72.2,29.72,North,-999,-999.0,0.0,54,0.00,,---,0.00,VWS V14.01,2013-09-02 17:15:00,
2013-09-02 13:20:00,90.2,71.9,29.72,North,-999,-999.0,0.0,55,0.00,,---,0.00,VWS V14.01,2013-09-02 17:20:00,
2013-09-02 13:25:00,89.8,72.6,29.71,North,-999,-999.0,0.0,57,0.00,,---,0.00,VWS V14.01,2013-09-02 17:25:00,
2013-09-02 13:30:00,89.6,72.4,29.71,North,-999,-999.0,0.0,57,0.00,,---,0.00,VWS V14.01,2013-09-02 17:30:00,
2013-09-02 13:35:00,89.6,73.4,29.71,North,-999,-999.0,0.0,59,0.00,,---,0.00,VWS V14.01,2013-09-02 17:35:00,
2013-09-02 13:40:00,89.1,72.9,29.71,North,-999,-999.0,0.0,59,0.00,,---,0.00,VWS V14.01,2013-09-02 17:40:00,
2013-09-02 13:45:00,87.8,72.7,29.71,North,-999,-999.0,0.0,61,0.00,,---,0.00,VWS V14.01,2013-09-02 17:45:00,
2013-09-02 13:50:00,87.5,72.9,29.71,North,-999,-999.0,0.0,62,0.00,,---,0.00,VWS V14.01,2013-09-02 17:50:00,
2013-09-02 13:55:00,88.0,73.8,29.71,North,-999,-999.0,0.0,63,0.00,,---,0.00,VWS V14.01,2013-09-02 17:55:00,
2013-09-02 14:00:00,88.2,74.0,29.71,North,-999,-999.0,0.0,63,0.00,,---,0.00,VWS V14.01,2013-09-02 18:00:00,
2013-09-02 14:05:00,88.4,74.2,29.70,North,-999,-999.0,0.0,63,0.00,,---,0.00,VWS V14.01,2013-09-02 18:05:00,
2013-09-02 14:11:00,89.5,74.8,29.70,North,-999,-999.0,0.0,62,0.00,,---,0.00,VWS V14.01,2013-09-02 18:11:00,
2013-09-02 14:16:00,89.8,75.1,29.70,North,-999,-999.0,0.0,62,0.00,,---,0.00,VWS V14.01,2013-09-02 18:16:00,
2013-09-02 14:21:00,90.5,74.7,29.70,North,-999,-999.0,0.0,60,0.00,,---,0.00,VWS V14.01,2013-09-02 18:21:00,
2013-09-02 14:26:00,90.7,74.4,29.70,North,-999,-999.0,0.0,59,0.00,,---,0.00,VWS V14.01,2013-09-02 18:26:00,
2013-09-02 14:31:00,90.9,75.1,29.70,North,-999,-999.0,0.0,60,0.00,,---,0.00,VWS V14.01,2013-09-02 18:31:00,
2013-09-02 14:36:00,91.1,74.3,29.70,North,-999,-999.0,0.0,58,0.00,,---,0.00,VWS V14.01,2013-09-02 18:36:00,
2013-09-02 14:41:00,90.7,73.4,29.70,North,-999,-999.0,0.0,57,0.00,,---,0.00,VWS V14.01,2013-09-02 18:41:00,
2013-09-02 14:46:00,90.5,73.7,29.69,North,-999,-999.0,0.0,58,0.00,,---,0.00,VWS V14.01,2013-09-02 18:46:00,
2013-09-02 14:51:00,90.4,73.1,29.69,North,-999,-999.0,0.0,57,0.00,,---,0.00,VWS V14.01,2013-09-02 18:51:00,
2013-09-02 14:56:00,90.9,74.1,29.69,North,-999,-999.0,0.0,58,0.00,,---,0.00,VWS V14.01,2013-09-02 18:56:00,
2013-09-02 15:01:00,92.3,75.4,29.68,North,-999,-999.0,0.0,58,0.00,,---,0.00,VWS V14.01,2013-09-02 19:01:00,
2013-09-02 15:07:00,93.8,75.7,29.68,North,-999,-999.0,0.0,56,0.00,,---,0.00,VWS V14.01,2013-09-02 19:07:00,
2013-09-02 15:12:00,94.3,75.7,29.68,North,-999,-999.0,0.0,55,0.00,,---,0.00,VWS V14.01,2013-09-02 19:12:00,
2013-09-02 15:17:00,93.1,74.6,29.68,North,-999,-999.0,0.0,55,0.00,,---,0.00,VWS V14.01,2013-09-02 19:17:00,
2013-09-02 15:22:00,92.5,74.5,29.67,North,-999,-999.0,0.0,56,0.00,,---,0.00,VWS V14.01,2013-09-02 19:22:00,
2013-09-02 15:28:00,94.5,76.4,29.67,North,-999,-999.0,0.0,56,0.00,,---,0.00,VWS V14.01,2013-09-02 19:28:00,
2013-09-02 15:33:00,97.6,76.4,29.67,North,-999,-999.0,0.0,51,0.00,,---,0.00,VWS V14.01,2013-09-02 19:33:00,
2013-09-02 15:38:00,97.9,76.1,29.67,North,-999,-999.0,0.0,50,0.00,,---,0.00,VWS V14.01,2013-09-02 19:38:00,
2013-09-02 15:43:00,96.1,73.2,29.67,North,-999,-999.0,0.0,48,0.00,,---,0.00,VWS V14.01,2013-09-02 19:43:00,
2013-09-02 15:48:00,96.3,73.4,29.67,North,-999,-999.0,0.0,48,0.00,,---,0.00,VWS V14.01,2013-09-02 19:48:00,
2013-09-02 15:53:00,96.8,73.3,29.67,North,-999,-999.0,0.0,47,0.00,,---,0.00,VWS V14.01,2013-09-02 19:53:00,
2013-09-02 15:58:00,96.5,72.3,29.67,North,-999,-999.0,0.0,46,0.00,,---,0.00,VWS V14.01,2013-09-02 19:58:00,
2013-09-02 16:04:00,98.3,75.2,29.66,North,-999,-999.0,0.0,48,0.00,,---,0.00,VWS V14.01,2013-09-02 20:04:00,
2013-09-02 16:09:00,100.6,76.1,29.66,North,-999,-999.0,0.0,46,0.00,,---,0.00,VWS V14.01,2013-09-02 20:09:00,
2013-09-02 16:14:00,101.0,73.7,29.66,North,-999,-999.0,0.0,42,0.00,,---,0.00,VWS V14.01,2013-09-02 20:14:00,
2013-09-02 16:19:00,99.0,73.3,29.66,North,-999,-999.0,0.0,44,0.00,,---,0.00,VWS V14.01,2013-09-02 20:19:00,
2013-09-02 16:24:00,97.6,73.3,29.66,North,-999,-999.0,0.0,46,0.00,,---,0.00,VWS V14.01,2013-09-02 20:24:00,
2013-09-02 16:29:00,96.8,72.6,29.66,North,-999,-999.0,0.0,46,0.00,,---,0.00,VWS V14.01,2013-09-02 20:29:00,
2013-09-02 16:34:00,96.8,73.3,29.66,North,-999,-999.0,0.0,47,0.00,,---,0.00,VWS V14.01,2013-09-02 20:34:00,
2013-09-02 16:39:00,97.6,74.6,29.66,North,-999,-999.0,0.0,48,0.00,,---,0.00,VWS V14.01,2013-09-02 20:39:00,
2013-09-02 16:44:00,97.2,74.9,29.66,North,-999,-999.0,0.0,49,0.00,,---,0.00,VWS V14.01,2013-09-02 20:44:00,
2013-09-02 16:49:00,98.3,75.2,29.65,North,-999,-999.0,0.0,48,0.00,,---,0.00,VWS V14.01,2013-09-02 20:49:00,
2013-09-02 16:54:00,99.0,75.3,29.65,North,-999,-999.0,0.0,47,0.00,,---,0.00,VWS V14.01,2013-09-02 20:54:00,
2013-09-02 16:59:00,97.2,74.2,29.65,North,-999,-999.0,0.0,48,0.00,,---,0.00,VWS V14.01,2013-09-02 20:59:00,
2013-09-02 17:05:00,95.9,73.7,29.65,North,-999,-999.0,0.0,49,0.00,,---,0.00,VWS V14.01,2013-09-02 21:05:00,
2013-09-02 17:10:00,97.2,74.9,29.65,North,-999,-999.0,0.0,49,0.00,,---,0.00,VWS V14.01,2013-09-02 21:10:00,
2013-09-02 17:15:00,97.2,73.6,29.65,North,-999,-999.0,0.0,47,0.00,,---,0.00,VWS V14.01,2013-09-02 21:15:00,
2013-09-02 17:20:00,98.3,74.6,29.65,North,-999,-999.0,0.0,47,0.00,,---,0.00,VWS V14.01,2013-09-02 21:20:00,
2013-09-02 17:25:00,99.4,75.0,29.65,North,-999,-999.0,0.0,46,0.00,,---,0.00,VWS V14.01,2013-09-02 21:25:00,
2013-09-02 17:30:00,98.3,74.6,29.65,North,-999,-999.0,0.0,47,0.00,,---,0.00,VWS V14.01,2013-09-02 21:30:00,
2013-09-02 17:35:00,98.1,75.1,29.65,North,-999,-999.0,0.0,48,0.00,,---,0.00,VWS V14.01,2013-09-02 21:35:00,
2013-09-02 17:40:00,96.7,73.2,29.65,North,-999,-999.0,0.0,47,0.00,,---,0.00,VWS V14.01,2013-09-02 21:40:00,
2013-09-02 17:45:00,94.9,72.2,29.65,North,-999,-999.0,0.0,48,0.00,,---,0.00,VWS V14.01,2013-09-02 21:45:00,
2013-09-02 17:50:00,93.8,72.4,29.65,North,-999,-999.0,0.0,50,0.00,,---,0.00,VWS V14.01,2013-09-02 21:50:00,
2013-09-02 17:55:00,94.1,73.8,29.65,North,-999,-999.0,0.0,52,0.00,,---,0.00,VWS V14.01,2013-09-02 21:55:00,
2013-09-02 18:00:00,94.3,74.6,29.65,North,-999,-999.0,0.0,53,0.00,,---,0.00,VWS V14.01,2013-09-02 22:00:00,
2013-09-02 18:05:00,95.8,75.4,29.65,North,-999,-999.0,0.0,52,0.00,,---,0.00,VWS V14.01,2013-09-02 22:05:00,
2013-09-02 18:11:00,95.0,74.1,29.65,North,-999,-999.0,0.0,51,0.00,,---,0.00,VWS V14.01,2013-09-02 22:11:00,
2013-09-02 18:16:00,94.1,73.8,29.65,North,-999,-999.0,0.0,52,0.00,,---,0.00,VWS V14.01,2013-09-02 22:16:00,
2013-09-02 18:21:00,93.8,73.5,29.65,North,-999,-999.0,0.0,52,0.00,,---,0.00,VWS V14.01,2013-09-02 22:21:00,
2013-09-02 18:26:00,93.4,73.2,29.66,North,-999,-999.0,0.0,52,0.00,,---,0.00,VWS V14.01,2013-09-02 22:26:00,
2013-09-02 18:31:00,92.5,72.9,29.66,North,-999,-999.0,0.0,53,0.00,,---,0.00,VWS V14.01,2013-09-02 22:31:00,
2013-09-02 18:36:00,92.0,72.4,29.66,North,-999,-999.0,0.0,53,0.00,,---,0.00,VWS V14.01,2013-09-02 22:36:00,
2013-09-02 18:41:00,91.3,72.3,29.66,North,-999,-999.0,0.0,54,0.00,,---,0.00,VWS V14.01,2013-09-02 22:41:00,
2013-09-02 18:46:00,89.6,71.8,29.65,North,-999,-999.0,0.0,56,0.00,,---,0.00,VWS V14.01,2013-09-02 22:46:00,
2013-09-02 18:51:00,88.9,72.2,29.65,North,-999,-999.0,0.0,58,0.00,,---,0.00,VWS V14.01,2013-09-02 22:51:00,
2013-09-02 18:56:00,89.1,72.9,29.66,North,-999,-999.0,0.0,59,0.00,,---,0.00,VWS V14.01,2013-09-02 22:56:00,
2013-09-02 19:02:00,88.9,73.2,29.66,North,-999,-999.0,0.0,60,0.00,,---,0.00,VWS V14.01,2013-09-02 23:02:00,
2013-09-02 19:07:00,87.8,72.2,29.66,North,-999,-999.0,0.0,60,0.00,,---,0.00,VWS V14.01,2013-09-02 23:07:00,
2013-09-02 19:12:00,86.9,72.3,29.65,North,-999,-999.0,0.0,62,0.00,,---,0.00,VWS V14.01,2013-09-02 23:12:00,
2013-09-02 19:17:00,86.0,72.4,29.66,North,-999,-999.0,0.0,64,0.00,,---,0.00,VWS V14.01,2013-09-02 23:17:00,
2013-09-02 19:22:00,85.7,72.1,29.65,North,-999,-999.0,0.0,64,0.00,,---,0.00,VWS V14.01,2013-09-02 23:22:00,
2013-09-02 19:27:00,85.1,72.0,29.65,North,-999,-999.0,0.0,65,0.00,,---,0.00,VWS V14.01,2013-09-02 23:27:00,
2013-09-02 19:32:00,84.6,72.0,29.65,North,-999,-999.0,0.0,66,0.00,,---,0.00,VWS V14.01,2013-09-02 23:32:00,
2013-09-02 19:37:00,83.9,71.8,29.66,North,-999,-999.0,0.0,67,0.00,,---,0.00,VWS V14.01,2013-09-02 23:37:00,
2013-09-02 19:42:00,82.8,72.0,29.66,North,-999,-999.0,0.0,70,0.00,,---,0.00,VWS V14.01,2013-09-02 23:42:00,
2013-09-02 19:47:00,82.1,71.3,29.66,North,-999,-999.0,0.0,70,0.00,,---,0.00,VWS V14.01,2013-09-02 23:47:00,
2013-09-02 19:52:00,81.5,71.2,29.66,North,-999,-999.0,0.0,71,0.00,,---,0.00,VWS V14.01,2013-09-02 23:52:00,
2013-09-02 19:57:00,81.4,71.1,29.67,North,-999,-999.0,0.0,71,0.00,,---,0.00,VWS V14.01,2013-09-02 23:57:00,
2013-09-02 20:03:00,81.2,71.3,29.67,North,-999,-999.0,0.0,72,0.00,,---,0.00,VWS V14.01,2013-09-03 00:03:00,
2013-09-02 20:08:00,80.6,71.2,29.66,North,-999,-999.0,0.0,73,0.00,,---,0.00,VWS V14.01,2013-09-03 00:08:00,
2013-09-02 20:13:00,80.3,71.3,29.66,North,-999,-999.0,0.0,74,0.00,,---,0.00,VWS V14.01,2013-09-03 00:13:00,
2013-09-02 20:18:00,79.9,70.9,29.66,North,-999,-999.0,0.0,74,0.00,,---,0.00,VWS V14.01,2013-09-03 00:18:00,
2013-09-02 20:23:00,79.9,71.3,29.67,North,-999,-999.0,0.0,75,0.00,,---,0.00,VWS V14.01,2013-09-03 00:23:00,
2013-09-02 20:28:00,79.7,71.1,29.67,North,-999,-999.0,0.0,75,0.00,,---,0.00,VWS V14.01,2013-09-03 00:28:00,
2013-09-02 20:33:00,79.6,71.0,29.67,North,-999,-999.0,0.0,75,0.00,,---,0.00,VWS V14.01,2013-09-03 00:33:00,
2013-09-02 20:38:00,79.4,71.2,29.67,North,-999,-999.0,0.0,76,0.00,,---,0.00,VWS V14.01,2013-09-03 00:38:00,
2013-09-02 20:43:00,79.0,71.2,29.67,North,-999,-999.0,0.0,77,0.00,,---,0.00,VWS V14.01,2013-09-03 00:43:00,
2013-09-02 20:48:00,78.8,71.0,29.67,North,-999,-999.0,0.0,77,0.00,,---,0.00,VWS V14.01,2013-09-03 00:48:00,
2013-09-02 20:53:00,78.5,70.7,29.67,North,-999,-999.0,0.0,77,0.00,,---,0.00,VWS V14.01,2013-09-03 00:53:00,
2013-09-02 20:59:00,78.5,70.7,29.68,North,-999,-999.0,0.0,77,0.00,,---,0.00,VWS V14.01,2013-09-03 00:59:00,
2013-09-02 21:00:00,78.5,71.1,29.68,North,-999,-999.0,0.0,78,0.00,,---,0.00,VWS V14.01,2013-09-03 01:00:00,
2013-09-02 21:05:00,78.5,71.1,29.68,North,-999,-999.0,0.0,78,0.00,,---,0.00,VWS V14.01,2013-09-03 01:05:00,
2013-09-02 21:59:00,76.5,70.6,29.69,North,-999,-999.0,0.0,82,0.00,,---,0.00,VWS V14.01,2013-09-03 01:59:00,
2013-09-02 22:05:00,76.3,70.4,29.69,North,-999,-999.0,0.0,82,0.00,,---,0.00,VWS V14.01,2013-09-03 02:05:00,
2013-09-02 22:10:00,76.3,70.4,29.69,North,-999,-999.0,0.0,82,0.00,,---,0.00,VWS V14.01,2013-09-03 02:10:00,
2013-09-02 22:15:00,76.3,70.4,29.69,North,-999,-999.0,0.0,82,0.00,,---,0.00,VWS V14.01,2013-09-03 02:15:00,
2013-09-02 22:20:00,76.3,70.4,29.69,North,-999,-999.0,0.0,82,0.00,,---,0.00,VWS V14.01,2013-09-03 02:20:00,
2013-09-02 22:25:00,76.1,70.6,29.69,North,-999,-999.0,0.0,83,0.00,,---,0.00,VWS V14.01,2013-09-03 02:25:00,
2013-09-02 22:30:00,76.0,70.5,29.69,North,-999,-999.0,0.0,83,0.00,,---,0.00,VWS V14.01,2013-09-03 02:30:00,
2013-09-02 22:35:00,75.8,70.3,29.68,North,-999,-999.0,0.0,83,0.00,,---,0.00,VWS V14.01,2013-09-03 02:35:00,
2013-09-02 22:40:00,75.8,70.3,29.69,North,-999,-999.0,0.0,83,0.00,,---,0.00,VWS V14.01,2013-09-03 02:40:00,
2013-09-02 22:45:00,75.8,70.6,29.68,North,-999,-999.0,0.0,84,0.00,,---,0.00,VWS V14.01,2013-09-03 02:45:00,
2013-09-02 22:50:00,76.0,70.8,29.68,North,-999,-999.0,0.0,84,0.00,,---,0.00,VWS V14.01,2013-09-03 02:50:00,
2013-09-02 22:55:00,75.8,70.6,29.68,North,-999,-999.0,0.0,84,0.00,,---,0.00,VWS V14.01,2013-09-03 02:55:00,
2013-09-02 23:00:00,75.8,70.6,29.68,North,-999,-999.0,0.0,84,0.00,,---,0.00,VWS V14.01,2013-09-03 03:00:00,
2013-09-02 23:05:00,75.6,70.4,29.68,North,-999,-999.0,0.0,84,0.00,,---,0.00,VWS V14.01,2013-09-03 03:05:00,
2013-09-02 23:11:00,75.6,70.4,29.69,North,-999,-999.0,0.0,84,0.00,,---,0.00,VWS V14.01,2013-09-03 03:11:00,
2013-09-02 23:16:00,75.6,70.8,29.68,North,-999,-999.0,0.0,85,0.00,,---,0.00,VWS V14.01,2013-09-03 03:16:00,
2013-09-02 23:21:00,75.2,70.4,29.69,North,-999,-999.0,0.0,85,0.00,,---,0.00,VWS V14.01,2013-09-03 03:21:00,
2013-09-02 23:26:00,75.4,70.6,29.69,North,-999,-999.0,0.0,85,0.00,,---,0.00,VWS V14.01,2013-09-03 03:26:00,
2013-09-02 23:31:00,75.4,70.6,29.69,North,-999,-999.0,0.0,85,0.00,,---,0.00,VWS V14.01,2013-09-03 03:31:00,
2013-09-02 23:36:00,75.6,70.8,29.69,North,-999,-999.0,0.0,85,0.00,,---,0.00,VWS V14.01,2013-09-03 03:36:00,
2013-09-02 23:41:00,75.6,70.8,29.69,North,-999,-999.0,0.0,85,0.00,,---,0.00,VWS V14.01,2013-09-03 03:41:00,
2013-09-02 23:46:00,75.8,71.0,29.69,North,-999,-999.0,0.0,85,0.00,,---,0.00,VWS V14.01,2013-09-03 03:46:00,
2013-09-02 23:51:00,75.8,71.0,29.69,North,-999,-999.0,0.0,85,0.00,,---,0.00,VWS V14.01,2013-09-03 03:51:00,
2013-09-02 23:56:00,75.8,71.0,29.68,North,-999,-999.0,0.0,85,0.00,,---,0.00,VWS V14.01,2013-09-03 03:56:00,